カタログに戻る

STARLINK-31086

運用中通信VLEO
NORAD 58626·PAYLOAD·🇺🇸 United States

打ち上げ Dec 23, 2023 から Cape Canaveral Space Force Station

Loading…

次のパス (今後24時間)

TLE

最新Source: CelesTrak SupGP

元期: Sep 14, 2026, 21:13 UTC

1 58626C 23203J   26257.88451389  .00027462  00000+0  99482-3 0  2577
2 58626  43.0028  78.2440 0001498 272.8047 340.5870 15.27559934    11

AllMySatでSTARLINK-31086をリアルタイム追跡

Download on the App Store